| time (UTC) | temp F | wind direction | speed MPH | gust MPH | rain 1hr in | rain 24hr in | rain mn in | humidity % | barometer mb |
| 20260905091533 | 66 | 19 | 0.0 | 0.0 | 0.00 | 0.56 | 0.01 | 98 | 1015.5 |
| 20260905090035 | 66 | 19 | 0.0 | 3.0 | 0.00 | 0.56 | 0.01 | 98 | 1015.5 |
| 20260905084531 | 66 | 59 | 0.0 | 2.0 | 0.00 | 0.59 | 0.01 | 97 | 1015.5 |
| 20260905083042 | 66 | 59 | 0.0 | 0.0 | 0.01 | 0.59 | 0.01 | 97 | 1015.4 |
| 20260905081531 | 66 | 59 | 0.0 | 0.0 | 0.01 | 0.59 | 0.01 | 97 | 1015.4 |
| 20260905080040 | 66 | 59 | 0.0 | 2.0 | 0.01 | 0.59 | 0.01 | 97 | 1015.3 |
| 20260905074529 | 66 | 56 | 0.0 | 2.0 | 0.01 | 0.59 | 0.01 | 97 | 1015.3 |
| 20260905073028 | 66 | 56 | 1.0 | 4.0 | 0.00 | 0.57 | 0.00 | 97 | 1015.3 |
| 20260905071527 | 66 | 51 | 1.0 | 6.0 | 0.00 | 0.57 | 0.00 | 97 | 1015.2 |
| 20260905070024 | 66 | 56 | 1.0 | 6.0 | 0.00 | 0.57 | 0.00 | 97 | 1015.0 |
| 20260905064523 | 66 | 50 | 1.0 | 9.0 | 0.00 | 0.57 | 0.00 | 97 | 1014.9 |
| 20260905063023 | 67 | 62 | 0.0 | 2.0 | 0.00 | 0.57 | 0.00 | 97 | 1015.0 |
| 20260905061522 | 67 | 64 | 1.0 | 3.0 | 0.00 | 0.57 | 0.00 | 97 | 1015.0 |
| 20260905060025 | 67 | 49 | 0.0 | 4.0 | 0.00 | 0.57 | 0.00 | 97 | 1015.0 |
| 20260905054531 | 67 | 58 | 0.0 | 4.0 | 0.00 | 0.60 | 0.00 | 97 | 1015.0 |
| 20260905053020 | 67 | 60 | 0.0 | 3.0 | 0.00 | 0.60 | 0.00 | 97 | 1014.9 |
| 20260905051526 | 67 | 39 | 0.0 | 4.0 | 0.00 | 0.60 | 0.00 | 97 | 1014.9 |
| 20260905050018 | 67 | 359 | 0.0 | 2.0 | 0.00 | 0.60 | 0.00 | 96 | 1014.8 |
| 20260905044515 | 67 | 336 | 0.0 | 5.0 | 0.00 | 0.69 | 0.60 | 96 | 1014.7 |
| 20260905043015 | 66 | 350 | 1.0 | 8.0 | 0.00 | 0.69 | 0.60 | 96 | 1014.8 |
| 20260905041514 | 66 | 301 | 1.0 | 4.0 | 0.00 | 0.69 | 0.60 | 96 | 1014.7 |
| 20260905040014 | 66 | 325 | 2.0 | 5.0 | 0.00 | 0.69 | 0.60 | 95 | 1014.7 |
| 20260905034516 | 66 | 326 | 4.0 | 8.0 | 0.00 | 0.69 | 0.60 | 95 | 1014.8 |
| 20260905033013 | 66 | 296 | 1.0 | 5.0 | 0.00 | 0.69 | 0.60 | 95 | 1014.9 |
| 20260905031512 | 66 | 315 | 2.0 | 8.0 | 0.00 | 0.69 | 0.60 | 95 | 1014.9 |
| 20260905030013 | 67 | 321 | 1.0 | 4.0 | 0.00 | 0.69 | 0.60 | 95 | 1015.0 |
| 20260905024511 | 67 | 321 | 1.0 | 5.0 | 0.00 | 0.69 | 0.60 | 95 | 1014.9 |
| 20260905023012 | 67 | 341 | 0.0 | 5.0 | 0.00 | 0.69 | 0.60 | 95 | 1014.9 |
| 20260905021510 | 67 | 327 | 2.0 | 6.0 | 0.00 | 0.69 | 0.60 | 95 | 1014.7 |
| 20260905020011 | 67 | 319 | 1.0 | 5.0 | 0.00 | 0.69 | 0.60 | 95 | 1014.7 |
| 20260905014508 | 67 | 20 | 0.0 | 2.0 | 0.00 | 0.69 | 0.60 | 95 | 1014.7 |
| 20260905013010 | 67 | 20 | 0.0 | 2.0 | 0.00 | 0.69 | 0.60 | 95 | 1014.5 |
| 20260905011513 | 67 | 20 | 0.0 | 2.0 | 0.00 | 0.69 | 0.60 | 95 | 1014.4 |
| 20260905010005 | 67 | 20 | 0.0 | 2.0 | 0.00 | 0.69 | 0.60 | 95 | 1014.3 |
| 20260905004501 | 67 | 20 | 0.0 | 3.0 | 0.00 | 0.69 | 0.60 | 95 | 1014.0 |
| 20260905003001 | 67 | 20 | 1.0 | 5.0 | 0.00 | 0.69 | 0.60 | 95 | 1013.9 |
| 20260905001601 | 67 | 356 | 0.0 | 4.0 | 0.00 | 0.69 | 0.60 | 94 | 1013.8 |
| 20260905000107 | 67 | 331 | 1.0 | 6.0 | 0.00 | 0.69 | 0.60 | 94 | 1013.8 |
| 20260904234559 | 67 | 29 | 1.0 | 7.0 | 0.00 | 0.69 | 0.60 | 94 | 1013.8 |
| 20260904233059 | 67 | 15 | 3.0 | 8.0 | 0.00 | 0.69 | 0.60 | 94 | 1013.7 |
| 20260904231558 | 67 | 352 | 3.0 | 9.0 | 0.00 | 0.69 | 0.60 | 94 | 1013.8 |
| 20260904230109 | 67 | 358 | 3.0 | 9.0 | 0.00 | 0.69 | 0.60 | 93 | 1013.7 |
| 20260904224557 | 68 | 3 | 3.0 | 9.0 | 0.00 | 0.69 | 0.60 | 93 | 1013.7 |
| 20260904223103 | 68 | 356 | 6.0 | 11.0 | 0.00 | 0.69 | 0.60 | 93 | 1013.6 |
| 20260904221557 | 68 | 354 | 4.0 | 9.0 | 0.00 | 0.69 | 0.60 | 93 | 1013.5 |
| 20260904220116 | 68 | 336 | 1.0 | 6.0 | 0.00 | 0.69 | 0.60 | 93 | 1013.5 |
| 20260904214554 | 68 | 6 | 4.0 | 10.0 | 0.00 | 0.69 | 0.60 | 92 | 1013.5 |
| 20260904213053 | 68 | 336 | 3.0 | 9.0 | 0.00 | 0.69 | 0.60 | 92 | 1013.4 |
| 20260904211551 | 68 | 16 | 5.0 | 10.0 | 0.00 | 0.69 | 0.60 | 92 | 1013.3 |
| 20260904210051 | 68 | 351 | 3.0 | 10.0 | 0.00 | 0.69 | 0.60 | 92 | 1013.1 |
| 20260904204551 | 68 | 353 | 4.0 | 10.0 | 0.00 | 0.69 | 0.60 | 92 | 1013.1 |
| 20260904203049 | 68 | 30 | 6.0 | 11.0 | 0.00 | 0.69 | 0.60 | 92 | 1013.1 |
| 20260904201554 | 68 | 29 | 4.0 | 10.0 | 0.00 | 0.69 | 0.60 | 92 | 1013.2 |
| 20260904200058 | 68 | 4 | 4.0 | 9.0 | 0.00 | 0.69 | 0.60 | 92 | 1013.1 |
| 20260904194549 | 68 | 29 | 3.0 | 11.0 | 0.00 | 0.69 | 0.60 | 92 | 1013.0 |
| 20260904193045 | 68 | 34 | 4.0 | 10.0 | 0.00 | 0.69 | 0.60 | 91 | 1012.8 |
| 20260904191544 | 69 | 2 | 6.0 | 10.0 | 0.00 | 0.69 | 0.60 | 91 | 1012.7 |
| 20260904190044 | 69 | 8 | 3.0 | 10.0 | 0.00 | 0.69 | 0.60 | 90 | 1012.6 |
| 20260904184604 | 70 | 354 | 1.0 | 8.0 | 0.00 | 0.69 | 0.60 | 91 | 1012.4 |
| 20260904183042 | 70 | 42 | 3.0 | 6.0 | 0.00 | 0.69 | 0.60 | 91 | 1012.4 |
| 20260904181542 | 69 | 359 | 4.0 | 7.0 | 0.00 | 0.69 | 0.60 | 90 | 1012.4 |
| 20260904180041 | 70 | 12 | 2.0 | 7.0 | 0.00 | 0.69 | 0.60 | 90 | 1012.4 |
| 20260904174609 | 70 | 41 | 1.0 | 9.0 | 0.00 | 0.69 | 0.60 | 90 | 1012.2 |
| 20260904173045 | 70 | 10 | 3.0 | 10.0 | 0.00 | 0.69 | 0.60 | 91 | 1012.2 |
| 20260904171539 | 70 | 27 | 4.0 | 7.0 | 0.00 | 0.69 | 0.60 | 91 | 1012.2 |
| 20260904170047 | 70 | 38 | 3.0 | 9.0 | 0.00 | 0.69 | 0.60 | 92 | 1012.1 |
| 20260904164538 | 71 | 336 | 3.0 | 8.0 | 0.00 | 0.69 | 0.60 | 94 | 1012.0 |
| 20260904163049 | 70 | 34 | 1.0 | 4.0 | 0.00 | 0.69 | 0.60 | 96 | 1011.9 |
| 20260904161535 | 69 | 18 | 2.0 | 6.0 | 0.00 | 0.69 | 0.60 | 97 | 1011.9 |
| 20260904160034 | 69 | 6 | 2.0 | 4.0 | 0.00 | 0.69 | 0.60 | 97 | 1011.8 |
| 20260904154532 | 69 | 22 | 2.0 | 4.0 | 0.00 | 0.69 | 0.60 | 97 | 1011.5 |
| 20260904153033 | 70 | 273 | 2.0 | 4.0 | 0.00 | 0.69 | 0.60 | 98 | 1011.5 |
| 20260904151533 | 70 | 273 | 1.0 | 3.0 | 0.00 | 0.69 | 0.60 | 98 | 1011.4 |
| 20260904150035 | 70 | 273 | 0.0 | 2.0 | 0.00 | 0.69 | 0.60 | 98 | 1011.2 |
| 20260904144529 | 70 | 273 | 1.0 | 2.0 | 0.00 | 0.69 | 0.60 | 98 | 1011.2 |
| 20260904143027 | 69 | 273 | 0.0 | 3.0 | 0.00 | 0.69 | 0.60 | 98 | 1011.1 |
| 20260904141523 | 69 | 273 | 1.0 | 3.0 | 0.00 | 0.69 | 0.60 | 98 | 1010.9 |
| 20260904140020 | 69 | 273 | 0.0 | 0.0 | 0.00 | 0.69 | 0.60 | 98 | 1010.9 |
| 20260904134517 | 68 | 273 | 0.0 | 0.0 | 0.00 | 0.69 | 0.60 | 98 | 1010.8 |
| 20260904133014 | 68 | 273 | 0.0 | 0.0 | 0.00 | 0.69 | 0.60 | 98 | 1010.8 |
| 20260904131510 | 67 | 273 | 0.0 | 0.0 | 0.00 | 0.69 | 0.60 | 98 | 1010.6 |
| 20260904130010 | 67 | 273 | 0.0 | 1.0 | 0.00 | 0.69 | 0.60 | 98 | 1010.5 |
| 20260904124506 | 66 | 273 | 0.0 | 0.0 | 0.00 | 0.69 | 0.60 | 98 | 1010.3 |
| 20260904123003 | 66 | 273 | 0.0 | 0.0 | 0.00 | 0.69 | 0.60 | 98 | 1010.1 |
| 20260904121502 | 66 | 273 | 0.0 | 1.0 | 0.00 | 0.69 | 0.60 | 98 | 1010.0 |
| 20260904120110 | 66 | 273 | 0.0 | 2.0 | 0.00 | 0.69 | 0.60 | 98 | 1009.8 |
| 20260904114559 | 66 | 273 | 0.0 | 2.0 | 0.00 | 0.69 | 0.60 | 98 | 1009.9 |
| 20260904113059 | 66 | 273 | 0.0 | 2.0 | 0.00 | 0.69 | 0.60 | 98 | 1009.6 |
| 20260904111558 | 66 | 273 | 1.0 | 2.0 | 0.00 | 0.69 | 0.60 | 98 | 1009.4 |
| 20260904110058 | 66 | 273 | 0.0 | 2.0 | 0.00 | 0.69 | 0.60 | 97 | 1009.3 |
| 20260904104557 | 66 | 273 | 0.0 | 1.0 | 0.00 | 0.69 | 0.60 | 97 | 1009.1 |
| 20260904103102 | 65 | 273 | 0.0 | 2.0 | 0.01 | 0.69 | 0.60 | 97 | 1009.0 |
| 20260904101556 | 65 | 273 | 0.0 | 3.0 | 0.51 | 0.69 | 0.60 | 97 | 1008.9 |
| 20260904100056 | 65 | 277 | 1.0 | 3.0 | 0.55 | 0.69 | 0.60 | 97 | 1009.4 |
| 20260904094557 | 65 | 294 | 2.0 | 9.0 | 0.56 | 0.69 | 0.60 | 97 | 1009.4 |
| 20260904093105 | 65 | 29 | 4.0 | 18.0 | 0.56 | 0.68 | 0.59 | 97 | 1008.9 |